VA3XLC Weather Reports


time (UTC)temp
C
wind
direction
speed
KPH
gust
KPH
rain 1hr
cm
rain 24hr
cm
rain mn
cm
humidity
%
barometer
mb
20260505203341 9 341 4.8 8.0 0.00 0.00 0.00 76 975.5
20260505202841 9 313 8.0 9.7 0.00 0.00 0.00 76 975.5
20260505202341 9 353 1.6 3.2 0.00 0.00 0.00 77 975.6
20260505201840 9 330 4.8 6.4 0.00 0.00 0.00 77 975.6
20260505201341 9 286 3.2 4.8 0.00 0.00 0.00 77 975.5
20260505200840 9 306 4.8 6.4 0.00 0.00 0.00 77 975.4
20260505200340 9 285 4.8 8.0 0.00 0.00 0.00 76 975.5
20260505195318 9 285 4.8 6.4 0.00 0.00 0.00 76 975.4
20260505194818 9 334 6.4 8.0 0.00 0.00 0.00 77 975.3
20260505194318 9 285 4.8 8.0 0.00 0.00 0.00 77 975.2
20260505193817 9 282 6.4 9.7 0.00 0.00 0.00 76 975.2
20260505193316 9 301 4.8 9.7 0.00 0.00 0.00 77 975.1
20260505192816 9 283 6.4 8.0 0.00 0.00 0.00 77 975.2
20260505192315 8 291 6.4 12.9 0.00 0.00 0.00 76 975.1
20260505191814 8 292 3.2 6.4 0.00 0.00 0.00 78 975.1
20260505191313 8 299 4.8 8.0 0.00 0.00 0.00 76 974.9
20260505190252 9 311 4.8 8.0 0.00 0.00 0.00 77 974.9
20260505185752 9 280 6.4 9.7 0.00 0.00 0.00 73 975.0
20260505184729 10 325 6.4 11.3 0.00 0.00 0.00 72 974.9
20260505184229 10 292 3.2 4.8 0.00 0.00 0.00 73 974.8
20260505183729 10 333 4.8 8.0 0.00 0.00 0.00 70 974.8
20260505183228 10 288 6.4 11.3 0.00 0.00 0.00 69 974.9
20260505182728 11 280 4.8 8.0 0.00 0.00 0.00 67 974.9
20260505182227 11 322 8.0 14.5 0.00 0.00 0.00 63 974.6
20260505181727 11 327 8.0 12.9 0.00 0.00 0.00 59 974.6
20260505180705 11 296 9.7 16.1 0.00 0.00 0.00 58 974.5
20260505180204 11 267 4.8 8.0 0.00 0.00 0.00 61 974.4
20260505175704 11 304 6.4 14.5 0.00 0.00 0.00 58 974.1
20260505175204 12 345 6.4 11.3 0.00 0.00 0.00 60 974.3
20260505174704 12 319 8.0 12.9 0.00 0.00 0.00 58 974.4
20260505173642 12 322 9.7 12.9 0.00 0.00 0.00 55 974.2
20260505173141 12 277 6.4 9.7 0.00 0.00 0.00 55 974.2
20260505171558 12 349 8.0 11.3 0.00 0.00 0.00 56 973.7
20260505170537 12 358 9.7 14.5 0.00 0.00 0.00 56 973.5
20260505170036 12 336 9.7 14.5 0.00 0.00 0.00 58 973.5
20260505165535 12 283 3.2 11.3 0.00 0.00 0.00 57 973.5
20260505165034 13 343 4.8 8.0 0.00 0.00 0.00 57 973.4
20260505164533 13 33 6.4 8.0 0.00 0.00 0.00 55 973.5
20260505164033 13 2 8.0 12.9 0.00 0.00 0.00 55 973.4
20260505163012 12 334 3.2 4.8 0.00 0.00 0.00 55 973.3
20260505162511 12 298 1.6 4.8 0.00 0.00 0.00 56 973.3
20260505162011 12 341 4.8 9.7 0.00 0.00 0.00 56 973.5
20260505160949 12 315 8.0 12.9 0.00 0.00 0.00 57 973.5
20260505160449 12 334 8.0 12.9 0.00 0.00 0.00 57 973.4
20260505152903 12 317 11.3 19.3 0.00 0.00 0.00 61 973.7
20260505152403 12 353 11.3 14.5 0.00 0.00 0.00 61 973.5
20260505151341 12 341 9.7 16.1 0.00 0.00 0.00 61 973.2
20260505150841 12 335 12.9 14.5 0.00 0.00 0.00 60 972.8
20260505150341 12 335 8.0 14.5 0.00 0.00 0.00 63 972.5
20260505124646 10 334 6.4 11.3 0.00 0.00 0.00 78 971.4
20260505124145 10 274 3.2 6.4 0.00 0.00 0.00 78 971.3
20260505123645 10 292 3.2 4.8 0.00 0.00 0.00 78 971.1
20260505122624 10 343 12.9 17.7 0.00 0.00 0.00 78 970.8
20260505122123 11 342 11.3 16.1 0.00 0.00 0.00 77 970.6
20260505121622 12 347 9.7 14.5 0.00 0.00 0.00 76 970.4
20260505121122 12 315 8.0 11.3 0.00 0.00 0.00 77 970.4
20260505120622 13 353 12.9 19.3 0.00 0.00 0.00 75 970.3
20260505120122 14 293 9.7 12.9 0.00 0.00 0.00 76 970.1
20260505115100 14 274 8.0 14.5 0.00 0.00 0.00 76 969.5
20260505114559 14 266 11.3 17.7 0.00 0.00 0.00 76 969.4
20260505114059 14 270 9.7 12.9 0.00 0.00 0.00 75 969.4
20260505113038 14 271 11.3 19.3 0.00 0.00 0.00 75 969.2
20260505112537 15 253 14.5 24.1 0.00 0.00 0.00 75 969.2
20260505111514 15 275 11.3 14.5 0.00 0.00 0.00 74 969.1
20260505101930 15 271 16.1 25.7 0.00 0.00 0.00 72 968.6
20260505101430 15 263 11.3 19.3 0.00 0.00 0.00 73 968.5
20260505100929 15 278 11.3 17.7 0.00 0.00 0.00 73 968.5
20260505095346 15 266 8.0 14.5 0.00 0.00 0.00 73 968.5
20260505094846 15 264 12.9 19.3 0.00 0.00 0.00 73 968.5
20260505094346 15 249 11.3 14.5 0.00 0.00 0.00 73 968.4
20260505093846 15 275 9.7 17.7 0.00 0.00 0.00 73 968.4
20260505093345 15 255 11.3 16.1 0.00 0.00 0.00 73 968.2
20260505092845 15 264 12.9 19.3 0.00 0.00 0.00 73 968.2
20260505092344 15 274 12.9 16.1 0.00 0.00 0.00 73 968.0
20260505091843 15 260 17.7 27.4 0.00 0.00 0.00 72 968.0
20260505091343 15 274 12.9 22.5 0.00 0.00 0.00 72 968.0
20260505090843 15 271 9.7 14.5 0.00 0.00 0.00 72 967.9
20260505090342 15 266 14.5 20.9 0.00 0.00 0.00 72 967.9
20260505085842 15 276 9.7 11.3 0.00 0.00 0.00 72 967.8
20260505085341 15 265 9.7 12.9 0.00 0.00 0.00 72 967.8
20260505084320 15 258 11.3 19.3 0.00 0.00 0.00 72 967.6
20260505083820 15 237 4.8 9.7 0.00 0.00 0.00 72 967.6
20260505083320 15 264 6.4 9.7 0.00 0.00 0.00 72 967.5
20260505082819 15 246 8.0 11.3 0.00 0.00 0.00 72 967.5
20260505082318 16 259 8.0 11.3 0.00 0.00 0.00 71 967.6
20260505081257 16 267 4.8 9.7 0.00 0.00 0.00 70 967.4
20260505080757 16 276 12.9 20.9 0.00 0.00 0.00 70 967.4
20260505080256 16 266 9.7 12.9 0.00 0.00 0.00 70 967.4
20260505075756 16 265 8.0 12.9 0.00 0.00 0.00 71 967.3
20260505074735 16 258 8.0 17.7 0.00 0.00 0.00 71 967.3
20260505072109 16 260 9.7 14.5 0.00 0.00 0.00 69 967.4
20260505071609 16 271 11.3 17.7 0.00 0.00 0.00 68 967.4
20260505071108 16 263 6.4 11.3 0.00 0.00 0.00 68 967.5
20260505070608 16 273 11.3 20.9 0.00 0.00 0.00 68 967.5
20260505070108 16 261 9.7 14.5 0.00 0.00 0.00 69 967.4
20260505065047 15 252 6.4 12.9 0.00 0.00 0.00 71 967.6
20260505064546 15 255 6.4 11.3 0.00 0.00 0.00 71 967.7
20260505064046 15 267 3.2 6.4 0.00 0.00 0.00 72 967.8
20260505063025 15 245 8.0 14.5 0.00 0.00 0.00 72 968.0
20260505062524 15 242 8.0 14.5 0.00 0.00 0.00 71 968.1
20260505062023 15 238 6.4 12.9 0.00 0.00 0.00 72 968.1
20260505061002 15 242 8.0 12.9 0.00 0.00 0.00 72 968.2
20260505055419 15 261 8.0 11.3 0.00 0.00 0.00 71 968.4
20260505054918 15 259 3.2 9.7 0.00 0.00 0.00 71 968.4
20260505054418 15 256 11.3 19.3 0.00 0.00 0.00 71 968.5
20260505053918 15 257 8.0 17.7 0.00 0.00 0.00 71 968.5
20260505053418 15 254 11.3 17.7 0.00 0.00 0.00 71 968.6
20260505052917 15 268 9.7 20.9 0.00 0.00 0.00 71 968.6
20260505052417 15 220 4.8 6.4 0.00 0.00 0.00 71 968.5
20260505051917 15 248 12.9 20.9 0.00 0.00 0.00 70 968.5
20260505051416 15 242 8.0 11.3 0.00 0.00 0.00 70 968.6
20260505050354 15 224 6.4 11.3 0.00 0.00 0.00 71 968.6
20260505040749 16 264 12.9 22.5 0.00 0.00 0.00 68 968.5
20260505040246 16 251 11.3 17.7 0.00 0.00 0.00 68 968.5
20260505035746 16 267 9.7 12.9 0.00 0.00 0.00 69 968.5
20260505035246 16 256 8.0 12.9 0.00 0.00 0.00 70 968.6
20260505034746 16 250 6.4 9.7 0.00 0.00 0.00 70 968.6
20260505034246 16 241 6.4 11.3 0.00 0.00 0.00 70 968.6
20260505033745 16 256 11.3 17.7 0.00 0.00 0.00 69 968.6
20260505033245 16 258 11.3 20.9 0.00 0.00 0.00 69 968.7
20260505032744 16 261 9.7 16.1 0.00 0.00 0.00 69 968.8
20260505032244 16 260 9.7 19.3 0.00 0.00 0.00 68 968.8
20260505031744 16 253 9.7 16.1 0.00 0.00 0.00 67 969.0
20260505030722 17 251 12.9 19.3 0.00 0.00 0.00 65 969.1
20260505030222 16 254 11.3 17.7 0.00 0.00 0.00 66 969.2
20260505025722 16 266 11.3 19.3 0.00 0.00 0.00 68 969.2
20260505024700 16 265 14.5 19.3 0.00 0.00 0.00 71 969.0
20260505024159 15 262 8.0 16.1 0.00 0.00 0.00 73 969.1
20260505023658 15 267 14.5 22.5 0.00 0.00 0.00 75 969.2
20260505022636 16 259 4.8 9.7 0.00 0.00 0.00 77 969.6
20260505022136 16 282 11.3 16.1 0.00 0.00 0.00 73 969.6
20260505021113 16 262 16.1 20.9 0.00 0.00 0.00 69 969.3
20260505020613 16 257 11.3 19.3 0.00 0.00 0.00 69 969.2
20260505015552 16 265 12.9 20.9 0.00 0.00 0.00 65 969.0
20260505015050 16 265 16.1 20.9 0.00 0.00 0.00 66 968.9
20260505014550 16 253 4.8 9.7 0.00 0.00 0.00 66 968.8
20260505014050 16 256 8.0 19.3 0.00 0.00 0.00 67 968.5
20260505013550 16 227 6.4 12.9 0.00 0.00 0.00 67 968.2
20260505013049 16 238 6.4 14.5 0.00 0.00 0.00 67 968.3
20260505012549 16 236 4.8 9.7 0.00 0.00 0.00 67 968.2
20260505012048 16 209 4.8 11.3 0.00 0.00 0.00 67 968.2
20260505011548 16 205 6.4 11.3 0.00 0.00 0.00 66 968.2
20260505011047 16 199 4.8 11.3 0.00 0.00 0.00 66 968.2
20260505010547 16 222 6.4 14.5 0.00 0.00 0.00 65 968.1
20260505010047 17 226 4.8 9.7 0.00 0.00 0.00 64 968.1
20260505005547 17 225 6.4 9.7 0.00 0.00 0.00 63 968.1
20260505005046 17 263 4.8 12.9 0.00 0.00 0.00 61 968.1
20260505004546 17 217 4.8 9.7 0.00 0.00 0.00 60 968.0
20260505004046 17 253 3.2 6.4 0.00 0.00 0.00 59 968.0
20260505003545 18 228 3.2 6.4 0.00 0.00 0.00 57 968.1
20260505003045 18 235 6.4 11.3 0.00 0.00 0.00 56 968.1
20260505002544 18 212 3.2 6.4 0.00 0.00 0.00 55 968.1
20260505002044 18 229 3.2 6.4 0.00 0.00 0.00 54 968.1
20260505001543 18 247 6.4 12.9 0.00 0.00 0.00 54 968.0
20260505001043 19 233 4.8 8.0 0.00 0.00 0.00 53 968.1
20260505000542 19 260 11.3 17.7 0.00 0.00 0.00 52 968.1
20260505000042 19 206 3.2 6.4 0.00 0.00 0.00 52 968.2
20260504235541 20 223 6.4 11.3 0.00 0.00 0.00 51 968.1
20260504235041 20 247 4.8 9.7 0.00 0.00 0.00 50 968.1
20260504234020 20 265 9.7 16.1 0.00 0.00 0.00 49 968.1
20260504233519 20 236 8.0 12.9 0.00 0.00 0.00 47 968.1
20260504233019 20 257 8.0 14.5 0.00 0.00 0.00 47 968.2
20260504231958 20 247 11.3 17.7 0.00 0.00 0.00 46 968.2
20260504231457 20 249 16.1 22.5 0.00 0.00 0.00 46 968.3
20260504230956 20 229 4.8 12.9 0.00 0.00 0.00 46 968.4
20260504230456 20 258 16.1 24.1 0.00 0.00 0.00 45 968.4
20260504225956 20 246 6.4 11.3 0.00 0.00 0.00 45 968.6
20260504225456 20 268 8.0 16.1 0.00 0.00 0.00 45 968.6
20260504224956 20 249 11.3 22.5 0.00 0.00 0.00 44 968.7
20260504224455 20 257 12.9 24.1 0.00 0.00 0.00 44 968.7
20260504223955 20 265 8.0 14.5 0.00 0.00 0.00 43 968.7
20260504222933 20 259 12.9 30.6 0.00 0.00 0.00 42 968.9
20260504222433 20 257 11.3 19.3 0.00 0.00 0.00 41 968.9
20260504221933 20 244 4.8 12.9 0.00 0.00 0.00 41 969.0
20260504221432 20 225 8.0 20.9 0.00 0.00 0.00 39 969.0
20260504220932 20 250 11.3 20.9 0.00 0.00 0.00 38 969.1
20260504215909 20 249 9.7 20.9 0.00 0.00 0.00 37 969.1
20260504215409 20 247 12.9 22.5 0.00 0.00 0.00 36 969.0
20260504214909 21 270 11.3 25.7 0.00 0.00 0.00 36 969.1
20260504214408 20 245 8.0 17.7 0.00 0.00 0.00 36 969.0
20260504213908 20 258 16.1 22.5 0.00 0.00 0.00 36 969.0
20260504213408 20 261 17.7 24.1 0.00 0.00 0.00 36 969.0
20260504212908 21 260 17.7 29.0 0.00 0.00 0.00 36 969.0
20260504211846 21 257 12.9 27.4 0.00 0.00 0.00 37 968.9
20260504211346 21 240 11.3 22.5 0.00 0.00 0.00 37 968.9
20260504210846 21 257 9.7 17.7 0.00 0.00 0.00 37 968.9
20260504210346 21 257 14.5 20.9 0.00 0.00 0.00 38 968.9
20260504205846 21 253 16.1 35.4 0.00 0.00 0.00 38 968.9
20260504205345 21 247 6.4 17.7 0.00 0.00 0.00 39 968.9
20260504204844 21 239 9.7 12.9 0.00 0.00 0.00 39 969.0
20260504204344 21 264 12.9 19.3 0.00 0.00 0.00 40 968.9
20260504203844 21 259 11.3 17.7 0.00 0.00 0.00 41 969.0